Time,TemperatureF,DewpointF,PressureIn,WindDirection,WindDirectionDegrees,WindSpeedMPH,WindSpeedGustMPH,Humidity,HourlyPrecipIn,Conditions,Clouds,dailyrainin,SoftwareType,DateUTC
2013-05-30 00:01:00,63.0,49.0,29.83,WNW,295,29.0,45.0,60,0.00,,,0.00,,2013-05-30 07:01:00,
2013-05-30 00:11:00,63.0,49.0,29.83,WNW,295,29.0,45.0,60,0.00,,,0.00,,2013-05-30 07:11:00,
2013-05-30 00:21:00,63.0,47.0,29.82,WNW,297,33.0,50.0,56,0.00,,,0.00,,2013-05-30 07:21:00,
2013-05-30 00:31:00,63.0,46.0,29.82,WNW,294,37.0,51.0,53,0.00,,,0.00,,2013-05-30 07:31:00,
2013-05-30 00:42:00,63.0,46.0,29.82,WNW,294,37.0,51.0,53,0.00,,,0.00,,2013-05-30 07:42:00,
2013-05-30 00:52:00,63.0,44.0,29.82,WNW,292,36.0,51.0,49,0.00,,,0.00,,2013-05-30 07:52:00,
2013-05-30 01:01:00,62.0,43.0,29.82,WNW,295,36.0,51.0,49,0.00,,,0.00,,2013-05-30 08:01:00,
2013-05-30 01:11:00,62.0,43.0,29.82,WNW,295,36.0,51.0,49,0.00,,,0.00,,2013-05-30 08:11:00,
2013-05-30 01:21:00,62.0,42.0,29.82,WNW,288,33.0,49.0,48,0.00,,,0.00,,2013-05-30 08:21:00,
2013-05-30 01:31:00,62.0,42.0,29.83,WNW,290,31.0,48.0,48,0.00,,,0.00,,2013-05-30 08:31:00,
2013-05-30 01:41:00,62.0,42.0,29.83,WNW,290,31.0,48.0,48,0.00,,,0.00,,2013-05-30 08:41:00,
2013-05-30 01:52:00,62.0,40.0,29.81,WNW,292,38.0,50.0,45,0.00,,,0.00,,2013-05-30 08:52:00,
2013-05-30 02:01:00,62.0,40.0,29.83,WNW,292,35.0,51.0,44,0.00,,,0.00,,2013-05-30 09:01:00,
2013-05-30 02:11:00,62.0,40.0,29.83,WNW,292,35.0,51.0,44,0.00,,,0.00,,2013-05-30 09:11:00,
2013-05-30 02:21:00,61.0,37.0,29.83,WNW,294,31.0,46.0,41,0.00,,,0.00,,2013-05-30 09:21:00,
2013-05-30 02:32:00,61.0,36.0,29.83,WNW,291,35.0,47.0,40,0.00,,,0.00,,2013-05-30 09:32:00,
2013-05-30 02:42:00,61.0,36.0,29.83,WNW,291,35.0,47.0,40,0.00,,,0.00,,2013-05-30 09:42:00,
2013-05-30 02:53:00,62.0,33.0,29.82,WNW,292,31.0,46.0,33,0.00,,,0.00,,2013-05-30 09:53:00,
2013-05-30 03:02:00,62.0,33.0,29.81,WNW,296,34.0,44.0,33,0.00,,,0.00,,2013-05-30 10:02:00,
2013-05-30 03:12:00,62.0,33.0,29.81,WNW,296,34.0,44.0,33,0.00,,,0.00,,2013-05-30 10:12:00,
2013-05-30 03:22:00,62.0,32.0,29.81,WNW,291,36.0,50.0,32,0.00,,,0.00,,2013-05-30 10:22:00,
2013-05-30 03:32:00,62.0,31.0,29.81,WNW,288,37.0,49.0,31,0.00,,,0.00,,2013-05-30 10:32:00,
2013-05-30 03:42:00,62.0,31.0,29.81,WNW,288,37.0,49.0,31,0.00,,,0.00,,2013-05-30 10:42:00,
2013-05-30 03:52:00,62.0,30.0,29.80,WNW,287,39.0,50.0,30,0.00,,,0.00,,2013-05-30 10:52:00,
2013-05-30 04:02:00,63.0,30.0,29.80,WNW,287,37.0,49.0,29,0.00,,,0.00,,2013-05-30 11:02:00,
2013-05-30 04:11:00,63.0,30.0,29.80,WNW,287,37.0,49.0,29,0.00,,,0.00,,2013-05-30 11:11:00,
2013-05-30 04:21:00,63.0,30.0,29.80,WNW,290,38.0,48.0,29,0.00,,,0.00,,2013-05-30 11:21:00,
2013-05-30 04:32:00,62.0,29.0,29.79,WNW,293,33.0,47.0,29,0.00,,,0.00,,2013-05-30 11:32:00,
2013-05-30 04:42:00,62.0,29.0,29.79,WNW,293,33.0,47.0,29,0.00,,,0.00,,2013-05-30 11:42:00,
2013-05-30 04:52:00,62.0,29.0,29.79,WNW,293,33.0,47.0,29,0.00,,,0.00,,2013-05-30 11:52:00,
2013-05-30 05:01:00,62.0,30.0,29.80,WNW,300,24.0,37.0,30,0.00,,,0.00,,2013-05-30 12:01:00,
2013-05-30 05:11:00,62.0,30.0,29.80,WNW,300,24.0,37.0,30,0.00,,,0.00,,2013-05-30 12:11:00,
2013-05-30 05:22:00,62.0,35.0,29.80,NW,307,23.0,36.0,36,0.00,,,0.00,,2013-05-30 12:22:00,
2013-05-30 05:32:00,63.0,35.0,29.80,NW,308,23.0,31.0,35,0.00,,,0.00,,2013-05-30 12:32:00,
2013-05-30 05:42:00,63.0,35.0,29.80,NW,308,23.0,31.0,35,0.00,,,0.00,,2013-05-30 12:42:00,
2013-05-30 05:52:00,64.0,29.0,29.81,NW,309,23.0,36.0,27,0.00,,,0.00,,2013-05-30 12:52:00,
2013-05-30 06:01:00,64.0,32.0,29.81,WNW,300,19.0,29.0,30,0.00,,,0.00,,2013-05-30 13:01:00,
2013-05-30 06:11:00,64.0,32.0,29.81,WNW,300,19.0,29.0,30,0.00,,,0.00,,2013-05-30 13:11:00,
2013-05-30 06:21:00,64.0,33.0,29.82,WNW,297,16.0,27.0,31,0.00,,,0.00,,2013-05-30 13:21:00,
2013-05-30 06:32:00,65.0,32.0,29.83,NW,306,10.0,28.0,29,0.00,,,0.00,,2013-05-30 13:32:00,
2013-05-30 06:52:00,69.0,21.0,29.83,NNW,347,9.0,28.0,16,0.00,,,0.00,,2013-05-30 13:52:00,
2013-05-30 07:01:00,69.0,22.0,29.84,North,351,8.0,15.0,17,0.00,,,0.00,,2013-05-30 14:01:00,
2013-05-30 07:21:00,70.0,20.0,29.84,NW,320,14.0,51.0,15,0.00,,,0.00,,2013-05-30 14:21:00,
2013-05-30 07:32:00,71.0,19.0,29.85,WNW,284,12.0,31.0,14,0.00,,,0.00,,2013-05-30 14:32:00,
2013-05-30 07:52:00,72.0,18.0,29.85,NNW,328,7.0,24.0,13,0.00,,,0.00,,2013-05-30 14:52:00,
2013-05-30 08:01:00,72.0,29.0,29.86,West,280,13.0,20.0,20,0.00,,,0.00,,2013-05-30 15:01:00,
2013-05-30 08:22:00,72.0,26.0,29.87,NNE,24,6.0,17.0,18,0.00,,,0.00,,2013-05-30 15:22:00,
2013-05-30 08:33:00,71.0,27.0,29.86,West,273,6.0,18.0,19,0.00,,,0.00,,2013-05-30 15:33:00,
2013-05-30 08:42:00,71.0,35.0,29.88,WSW,244,14.0,20.0,27,0.00,,,0.00,,2013-05-30 15:42:00,
2013-05-30 09:03:00,68.0,39.0,29.88,SW,220,18.0,25.0,35,0.00,,,0.00,,2013-05-30 16:03:00,
2013-05-30 09:12:00,68.0,39.0,29.88,SW,220,18.0,25.0,35,0.00,,,0.00,,2013-05-30 16:12:00,
2013-05-30 09:22:00,70.0,40.0,29.88,WSW,250,15.0,26.0,33,0.00,,,0.00,,2013-05-30 16:22:00,
2013-05-30 09:33:00,69.0,40.0,29.89,SW,235,17.0,26.0,35,0.00,,,0.00,,2013-05-30 16:33:00,
2013-05-30 09:42:00,70.0,40.0,29.89,West,259,16.0,24.0,34,0.00,,,0.00,,2013-05-30 16:42:00,
2013-05-30 09:52:00,70.0,40.0,29.89,West,259,16.0,24.0,34,0.00,,,0.00,,2013-05-30 16:52:00,
2013-05-30 10:02:00,70.0,41.0,29.89,West,268,17.0,25.0,35,0.00,,,0.00,,2013-05-30 17:02:00,
2013-05-30 10:11:00,70.0,41.0,29.89,West,268,17.0,25.0,35,0.00,,,0.00,,2013-05-30 17:11:00,
2013-05-30 10:22:00,70.0,42.0,29.89,West,265,18.0,25.0,36,0.00,,,0.00,,2013-05-30 17:22:00,
2013-05-30 10:32:00,71.0,42.0,29.89,West,268,18.0,28.0,35,0.00,,,0.00,,2013-05-30 17:32:00,
2013-05-30 10:42:00,71.0,42.0,29.89,West,268,18.0,28.0,35,0.00,,,0.00,,2013-05-30 17:42:00,
2013-05-30 10:52:00,72.0,43.0,29.89,West,269,16.0,26.0,35,0.00,,,0.00,,2013-05-30 17:52:00,
2013-05-30 11:02:00,73.0,43.0,29.90,West,265,17.0,24.0,34,0.00,,,0.00,,2013-05-30 18:02:00,
2013-05-30 11:11:00,73.0,43.0,29.90,West,265,17.0,24.0,34,0.00,,,0.00,,2013-05-30 18:11:00,
2013-05-30 11:21:00,73.0,43.0,29.90,WSW,252,14.0,27.0,34,0.00,,,0.00,,2013-05-30 18:21:00,
2013-05-30 11:32:00,75.0,43.0,29.90,WSW,245,19.0,26.0,32,0.00,,,0.00,,2013-05-30 18:32:00,
2013-05-30 11:42:00,75.0,43.0,29.90,WSW,245,19.0,26.0,32,0.00,,,0.00,,2013-05-30 18:42:00,
2013-05-30 11:52:00,75.0,43.0,29.90,WSW,242,22.0,27.0,32,0.00,,,0.00,,2013-05-30 18:52:00,
2013-05-30 12:01:00,76.0,43.0,29.89,SW,231,21.0,31.0,31,0.00,,,0.00,,2013-05-30 19:01:00,
2013-05-30 12:11:00,76.0,43.0,29.89,SW,231,21.0,31.0,31,0.00,,,0.00,,2013-05-30 19:11:00,
2013-05-30 12:22:00,77.0,40.0,29.91,West,264,12.0,25.0,27,0.00,,,0.00,,2013-05-30 19:22:00,
2013-05-30 12:32:00,78.0,41.0,29.90,West,275,18.0,30.0,27,0.00,,,0.00,,2013-05-30 19:32:00,
2013-05-30 12:41:00,78.0,41.0,29.90,West,275,18.0,30.0,27,0.00,,,0.00,,2013-05-30 19:41:00,
2013-05-30 12:52:00,77.0,41.0,29.90,WNW,284,23.0,35.0,28,0.00,,,0.00,,2013-05-30 19:52:00,
2013-05-30 13:01:00,78.0,41.0,29.91,West,277,21.0,30.0,27,0.00,,,0.00,,2013-05-30 20:01:00,
2013-05-30 13:11:00,78.0,41.0,29.91,West,277,21.0,30.0,27,0.00,,,0.00,,2013-05-30 20:11:00,
2013-05-30 13:22:00,78.0,41.0,29.90,WNW,285,16.0,28.0,27,0.00,,,0.00,,2013-05-30 20:22:00,
2013-05-30 13:32:00,78.0,41.0,29.89,WNW,286,18.0,31.0,27,0.00,,,0.00,,2013-05-30 20:32:00,
2013-05-30 13:41:00,78.0,41.0,29.89,WNW,286,18.0,31.0,27,0.00,,,0.00,,2013-05-30 20:41:00,
2013-05-30 13:52:00,78.0,41.0,29.89,WNW,285,22.0,31.0,27,0.00,,,0.00,,2013-05-30 20:52:00,
2013-05-30 14:01:00,79.0,41.0,29.89,WNW,285,21.0,32.0,26,0.00,,,0.00,,2013-05-30 21:01:00,
2013-05-30 14:11:00,78.0,40.0,29.89,West,268,26.0,36.0,26,0.00,,,0.00,,2013-05-30 21:11:00,
2013-05-30 14:22:00,78.0,40.0,29.89,West,268,26.0,36.0,26,0.00,,,0.00,,2013-05-30 21:22:00,
2013-05-30 14:33:00,79.0,40.0,29.88,West,272,22.0,35.0,25,0.00,,,0.00,,2013-05-30 21:33:00,
2013-05-30 14:42:00,79.0,40.0,29.88,West,272,22.0,35.0,25,0.00,,,0.00,,2013-05-30 21:42:00,
2013-05-30 14:53:00,78.0,38.0,29.88,West,265,24.0,34.0,24,0.00,,,0.00,,2013-05-30 21:53:00,
2013-05-30 15:02:00,78.0,37.0,29.88,West,278,21.0,36.0,23,0.00,,,0.00,,2013-05-30 22:02:00,
2013-05-30 15:12:00,78.0,37.0,29.88,West,278,21.0,36.0,23,0.00,,,0.00,,2013-05-30 22:12:00,
2013-05-30 15:22:00,79.0,37.0,29.87,WNW,286,24.0,35.0,22,0.00,,,0.00,,2013-05-30 22:22:00,
2013-05-30 15:32:00,79.0,36.0,29.87,WNW,285,26.0,36.0,21,0.00,,,0.00,,2013-05-30 22:32:00,
2013-05-30 15:42:00,78.0,37.0,29.87,West,279,24.0,37.0,23,0.00,,,0.00,,2013-05-30 22:42:00,
2013-05-30 15:52:00,78.0,37.0,29.87,West,279,24.0,37.0,23,0.00,,,0.00,,2013-05-30 22:52:00,
2013-05-30 16:02:00,78.0,36.0,29.87,West,275,25.0,34.0,22,0.00,,,0.00,,2013-05-30 23:02:00,
2013-05-30 16:11:00,78.0,36.0,29.87,West,275,25.0,34.0,22,0.00,,,0.00,,2013-05-30 23:11:00,
2013-05-30 16:21:00,78.0,37.0,29.86,West,280,21.0,33.0,23,0.00,,,0.00,,2013-05-30 23:21:00,
2013-05-30 16:31:00,77.0,34.0,29.86,West,273,25.0,39.0,21,0.00,,,0.00,,2013-05-30 23:31:00,
2013-05-30 16:41:00,77.0,34.0,29.86,West,273,25.0,39.0,21,0.00,,,0.00,,2013-05-30 23:41:00,
2013-05-30 16:52:00,77.0,36.0,29.85,WNW,282,26.0,37.0,23,0.00,,,0.00,,2013-05-30 23:52:00,
2013-05-30 17:01:00,77.0,35.0,29.85,West,280,29.0,38.0,22,0.00,,,0.00,,2013-05-31 00:01:00,
2013-05-30 17:11:00,77.0,35.0,29.85,West,280,29.0,38.0,22,0.00,,,0.00,,2013-05-31 00:11:00,
2013-05-30 17:21:00,76.0,36.0,29.84,West,280,25.0,38.0,23,0.00,,,0.00,,2013-05-31 00:21:00,
2013-05-30 17:32:00,76.0,37.0,29.83,WNW,291,22.0,36.0,24,0.00,,,0.00,,2013-05-31 00:32:00,
2013-05-30 17:41:00,75.0,37.0,29.83,WNW,299,23.0,36.0,25,0.00,,,0.00,,2013-05-31 00:41:00,
2013-05-30 17:52:00,75.0,37.0,29.83,WNW,299,23.0,36.0,25,0.00,,,0.00,,2013-05-31 00:52:00,
2013-05-30 18:01:00,74.0,37.0,29.82,WNW,298,30.0,42.0,26,0.00,,,0.00,,2013-05-31 01:01:00,
2013-05-30 18:11:00,74.0,37.0,29.82,WNW,298,30.0,42.0,26,0.00,,,0.00,,2013-05-31 01:11:00,
2013-05-30 18:21:00,74.0,37.0,29.80,WNW,288,29.0,42.0,26,0.00,,,0.00,,2013-05-31 01:21:00,
2013-05-30 18:31:00,73.0,36.0,29.80,WNW,291,35.0,46.0,26,0.00,,,0.00,,2013-05-31 01:31:00,
2013-05-30 18:42:00,72.0,38.0,29.80,WNW,286,34.0,46.0,29,0.00,,,0.00,,2013-05-31 01:42:00,
2013-05-30 18:51:00,72.0,38.0,29.80,WNW,286,34.0,46.0,29,0.00,,,0.00,,2013-05-31 01:51:00,
2013-05-30 19:02:00,72.0,39.0,29.79,WNW,282,35.0,47.0,30,0.00,,,0.00,,2013-05-31 02:02:00,
2013-05-30 19:11:00,72.0,39.0,29.79,WNW,282,35.0,47.0,30,0.00,,,0.00,,2013-05-31 02:11:00,
2013-05-30 19:21:00,71.0,37.0,29.80,WNW,288,37.0,49.0,29,0.00,,,0.00,,2013-05-31 02:21:00,
2013-05-30 19:31:00,70.0,40.0,29.81,WNW,294,32.0,51.0,33,0.00,,,0.00,,2013-05-31 02:31:00,
2013-05-30 19:41:00,70.0,40.0,29.81,WNW,294,32.0,51.0,33,0.00,,,0.00,,2013-05-31 02:41:00,
2013-05-30 19:51:00,69.0,40.0,29.82,WNW,287,36.0,51.0,35,0.00,,,0.00,,2013-05-31 02:51:00,
2013-05-30 20:01:00,68.0,40.0,29.82,WNW,285,34.0,48.0,36,0.00,,,0.00,,2013-05-31 03:01:00,
2013-05-30 20:11:00,68.0,40.0,29.82,WNW,285,34.0,48.0,36,0.00,,,0.00,,2013-05-31 03:11:00,
2013-05-30 20:21:00,68.0,41.0,29.82,WNW,290,32.0,50.0,37,0.00,,,0.00,,2013-05-31 03:21:00,
2013-05-30 20:32:00,67.0,40.0,29.82,WNW,297,34.0,48.0,37,0.00,,,0.00,,2013-05-31 03:32:00,
2013-05-30 20:43:00,67.0,40.0,29.82,WNW,297,34.0,48.0,37,0.00,,,0.00,,2013-05-31 03:43:00,
2013-05-30 20:53:00,67.0,39.0,29.81,WNW,298,37.0,52.0,36,0.00,,,0.00,,2013-05-31 03:53:00,
2013-05-30 21:02:00,67.0,39.0,29.82,WNW,295,30.0,50.0,36,0.00,,,0.00,,2013-05-31 04:02:00,
2013-05-30 21:12:00,67.0,39.0,29.82,WNW,295,30.0,50.0,36,0.00,,,0.00,,2013-05-31 04:12:00,
2013-05-30 21:22:00,68.0,39.0,29.83,WNW,288,31.0,48.0,35,0.00,,,0.00,,2013-05-31 04:22:00,
2013-05-30 21:32:00,68.0,39.0,29.84,WNW,292,32.0,48.0,34,0.00,,,0.00,,2013-05-31 04:32:00,
2013-05-30 21:42:00,68.0,39.0,29.84,WNW,292,32.0,48.0,34,0.00,,,0.00,,2013-05-31 04:42:00,
2013-05-30 21:53:00,68.0,36.0,29.84,WNW,289,33.0,48.0,31,0.00,,,0.00,,2013-05-31 04:53:00,
2013-05-30 22:01:00,68.0,37.0,29.85,WNW,291,31.0,49.0,32,0.00,,,0.00,,2013-05-31 05:01:00,
2013-05-30 22:11:00,67.0,38.0,29.85,WNW,289,35.0,47.0,35,0.00,,,0.00,,2013-05-31 05:11:00,
2013-05-30 22:22:00,67.0,38.0,29.85,WNW,289,35.0,47.0,35,0.00,,,0.00,,2013-05-31 05:22:00,
2013-05-30 22:31:00,66.0,39.0,29.86,WNW,295,29.0,42.0,37,0.00,,,0.00,,2013-05-31 05:31:00,
2013-05-30 22:41:00,66.0,39.0,29.86,WNW,295,29.0,42.0,37,0.00,,,0.00,,2013-05-31 05:41:00,
2013-05-30 22:52:00,66.0,42.0,29.86,WNW,289,34.0,49.0,41,0.00,,,0.00,,2013-05-31 05:52:00,
2013-05-30 23:01:00,66.0,41.0,29.85,WNW,294,34.0,52.0,40,0.00,,,0.00,,2013-05-31 06:01:00,
2013-05-30 23:11:00,66.0,41.0,29.85,WNW,294,34.0,52.0,40,0.00,,,0.00,,2013-05-31 06:11:00,
2013-05-30 23:21:00,66.0,42.0,29.86,WNW,296,31.0,46.0,42,0.00,,,0.00,,2013-05-31 06:21:00,
2013-05-30 23:31:00,66.0,43.0,29.86,WNW,293,29.0,49.0,44,0.00,,,0.00,,2013-05-31 06:31:00,
2013-05-30 23:41:00,65.0,42.0,29.86,WNW,295,30.0,43.0,43,0.00,,,0.00,,2013-05-31 06:41:00,
2013-05-30 23:52:00,65.0,42.0,29.86,WNW,295,30.0,43.0,43,0.00,,,0.00,,2013-05-31 06:52:00,